| time (UTC) | temp F | wind direction | speed MPH | gust MPH | rain 1hr in | rain 24hr in | rain mn in | humidity % | barometer mb |
| 20260905235959 | 70 | 42 | 0.0 | 0.0 | 0.00 | 0.01 | 0.01 | 53 | 1014.9 |
| 20260905234945 | 69 | 42 | 0.0 | 1.0 | 0.00 | 0.01 | 0.01 | 55 | 1014.8 |
| 20260905233948 | 68 | 42 | 0.0 | 0.0 | 0.00 | 0.01 | 0.01 | 59 | 1014.9 |
| 20260905232931 | 67 | 42 | 0.0 | 2.0 | 0.00 | 0.01 | 0.01 | 61 | 1014.9 |
| 20260905230948 | 67 | 42 | 1.0 | 5.0 | 0.00 | 0.01 | 0.01 | 58 | 1014.9 |
| 20260905225935 | 67 | 42 | 0.0 | 0.0 | 0.00 | 0.01 | 0.01 | 59 | 1015.1 |
| 20260905224937 | 66 | 42 | 0.0 | 0.0 | 0.00 | 0.01 | 0.01 | 67 | 1015.4 |
| 20260905223939 | 64 | 42 | 0.0 | 0.0 | 0.00 | 0.01 | 0.01 | 72 | 1015.5 |
| 20260905222946 | 63 | 42 | 0.0 | 0.0 | 0.00 | 0.01 | 0.01 | 76 | 1015.7 |
| 20260905221931 | 61 | 42 | 0.0 | 0.0 | 0.00 | 0.01 | 0.01 | 78 | 1016.1 |
| 20260905220935 | 61 | 42 | 0.0 | 0.0 | 0.00 | 0.01 | 0.01 | 77 | 1016.1 |
| 20260905215941 | 61 | 42 | 0.0 | 0.0 | 0.00 | 0.01 | 0.01 | 77 | 1016.0 |
| 20260905214945 | 61 | 42 | 0.0 | 0.0 | 0.00 | 0.01 | 0.01 | 76 | 1016.0 |
| 20260905213952 | 61 | 42 | 0.0 | 0.0 | 0.00 | 0.01 | 0.01 | 75 | 1016.5 |
| 20260905212955 | 62 | 41 | 0.0 | 0.0 | 0.00 | 0.01 | 0.01 | 73 | 1016.7 |
| 20260905211957 | 62 | 41 | 0.0 | 1.0 | 0.00 | 0.01 | 0.01 | 70 | 1016.6 |
| 20260905210942 | 63 | 41 | 1.0 | 9.0 | 0.00 | 0.01 | 0.01 | 72 | 1016.1 |
| 20260905205949 | 63 | 42 | 0.0 | 0.0 | 0.01 | 0.01 | 0.01 | 72 | 1016.2 |
| 20260905204937 | 64 | 42 | 0.0 | 0.0 | 0.01 | 0.01 | 0.01 | 65 | 1016.6 |
| 20260905203940 | 64 | 41 | 0.0 | 0.0 | 0.01 | 0.01 | 0.01 | 62 | 1016.8 |
| 20260905202943 | 65 | 41 | 0.0 | 0.0 | 0.01 | 0.01 | 0.01 | 60 | 1016.7 |
| 20260905201929 | 66 | 41 | 0.0 | 0.0 | 0.01 | 0.01 | 0.01 | 59 | 1016.6 |
| 20260905201000 | 66 | 42 | 0.0 | 0.0 | 0.00 | 0.00 | 0.00 | 60 | 1016.5 |
| 20260905195941 | 66 | 41 | 0.0 | 0.0 | 0.00 | 0.00 | 0.00 | 60 | 1016.3 |
| 20260905194945 | 66 | 42 | 0.0 | 0.0 | 0.00 | 0.00 | 0.00 | 58 | 1016.2 |
| 20260905193947 | 65 | 42 | 0.0 | 0.0 | 0.00 | 0.00 | 0.00 | 57 | 1016.2 |
| 20260905192934 | 65 | 42 | 0.0 | 0.0 | 0.00 | 0.00 | 0.00 | 61 | 1016.2 |
| 20260905191938 | 64 | 42 | 0.0 | 0.0 | 0.00 | 0.00 | 0.00 | 62 | 1016.4 |
| 20260905190939 | 63 | 42 | 0.0 | 0.0 | 0.00 | 0.00 | 0.00 | 61 | 1016.6 |
| 20260905185945 | 63 | 41 | 0.0 | 0.0 | 0.00 | 0.00 | 0.00 | 64 | 1016.6 |
| 20260905184932 | 62 | 42 | 0.0 | 0.0 | 0.00 | 0.00 | 0.00 | 62 | 1016.7 |
| 20260905183935 | 62 | 41 | 0.0 | 0.0 | 0.00 | 0.00 | 0.00 | 63 | 1016.7 |
| 20260905182941 | 63 | 42 | 0.0 | 0.0 | 0.00 | 0.00 | 0.00 | 63 | 1016.7 |
| 20260905182006 | 63 | 41 | 0.0 | 7.0 | 0.00 | 0.00 | 0.00 | 63 | 1016.8 |
| 20260905180932 | 63 | 41 | 3.0 | 8.0 | 0.00 | 0.00 | 0.00 | 66 | 1017.0 |
| 20260905175936 | 63 | 41 | 0.0 | 0.0 | 0.00 | 0.00 | 0.00 | 68 | 1017.0 |
| 20260905174938 | 62 | 42 | 0.0 | 0.0 | 0.00 | 0.00 | 0.00 | 67 | 1017.0 |
| 20260905174003 | 62 | 41 | 0.0 | 0.0 | 0.00 | 0.01 | 0.00 | 69 | 1017.1 |
| 20260905172948 | 61 | 42 | 0.0 | 0.0 | 0.00 | 0.01 | 0.00 | 69 | 1017.1 |
| 20260905171933 | 61 | 42 | 0.0 | 0.0 | 0.00 | 0.01 | 0.00 | 69 | 1016.9 |
| 20260905170937 | 60 | 42 | 0.0 | 0.0 | 0.00 | 0.01 | 0.00 | 68 | 1017.0 |
| 20260905170000 | 60 | 41 | 0.0 | 0.0 | 0.00 | 0.01 | 0.00 | 68 | 1016.9 |
| 20260905164942 | 59 | 41 | 0.0 | 0.0 | 0.00 | 0.01 | 0.00 | 69 | 1016.9 |
| 20260905163931 | 59 | 42 | 0.0 | 0.0 | 0.00 | 0.01 | 0.00 | 70 | 1016.7 |
| 20260905162935 | 58 | 41 | 0.0 | 0.0 | 0.00 | 0.01 | 0.00 | 73 | 1016.8 |
| 20260905161939 | 58 | 42 | 0.0 | 0.0 | 0.00 | 0.01 | 0.00 | 75 | 1016.8 |
| 20260905160942 | 57 | 42 | 0.0 | 0.0 | 0.00 | 0.01 | 0.00 | 76 | 1016.8 |
| 20260905155930 | 57 | 41 | 0.0 | 0.0 | 0.00 | 0.01 | 0.00 | 80 | 1016.9 |
| 20260905154952 | 56 | 41 | 0.0 | 0.0 | 0.00 | 0.01 | 0.00 | 81 | 1017.0 |
| 20260905152929 | 55 | 42 | 0.0 | 0.0 | 0.00 | 0.01 | 0.00 | 83 | 1017.0 |
| 20260905151936 | 54 | 42 | 0.0 | 0.0 | 0.00 | 0.01 | 0.00 | 85 | 1017.0 |
| 20260905150943 | 54 | 42 | 0.0 | 0.0 | 0.00 | 0.01 | 0.00 | 85 | 1016.9 |
| 20260905145947 | 53 | 42 | 0.0 | 0.0 | 0.00 | 0.01 | 0.00 | 85 | 1016.6 |
| 20260905144929 | 53 | 42 | 0.0 | 0.0 | 0.00 | 0.01 | 0.00 | 84 | 1016.7 |
| 20260905143934 | 53 | 41 | 0.0 | 0.0 | 0.00 | 0.01 | 0.00 | 84 | 1016.6 |
| 20260905142957 | 53 | 42 | 0.0 | 0.0 | 0.00 | 0.01 | 0.00 | 83 | 1016.4 |
| 20260905141944 | 53 | 41 | 0.0 | 0.0 | 0.00 | 0.01 | 0.00 | 83 | 1016.3 |
| 20260905140948 | 53 | 42 | 0.0 | 0.0 | 0.00 | 0.01 | 0.00 | 84 | 1016.2 |
| 20260905140009 | 53 | 42 | 0.0 | 0.0 | 0.00 | 0.01 | 0.00 | 84 | 1015.9 |
| 20260905134931 | 53 | 41 | 0.0 | 0.0 | 0.00 | 0.01 | 0.00 | 83 | 1015.6 |
| 20260905133938 | 54 | 41 | 0.0 | 0.0 | 0.00 | 0.01 | 0.00 | 83 | 1015.6 |
| 20260905132941 | 54 | 42 | 0.0 | 0.0 | 0.00 | 0.01 | 0.00 | 82 | 1015.8 |
| 20260905131943 | 54 | 42 | 0.0 | 6.0 | 0.00 | 0.01 | 0.00 | 81 | 1015.9 |
| 20260905131009 | 55 | 42 | 0.0 | 6.0 | 0.00 | 0.01 | 0.00 | 80 | 1016.0 |
| 20260905125934 | 55 | 42 | 0.0 | 12.0 | 0.00 | 0.01 | 0.00 | 78 | 1016.3 |
| 20260905124938 | 54 | 44 | 4.0 | 9.0 | 0.00 | 0.01 | 0.00 | 80 | 1016.5 |
| 20260905123943 | 54 | 43 | 4.0 | 13.0 | 0.00 | 0.01 | 0.00 | 81 | 1016.3 |
| 20260905122947 | 52 | 43 | 1.0 | 6.0 | 0.00 | 0.01 | 0.00 | 82 | 1016.2 |
| 20260905121934 | 52 | 43 | 0.0 | 0.0 | 0.00 | 0.01 | 0.00 | 81 | 1016.4 |
| 20260905120939 | 51 | 43 | 0.0 | 0.0 | 0.00 | 0.01 | 0.00 | 77 | 1016.4 |
| 20260905114937 | 51 | 42 | 0.0 | 0.0 | 0.00 | 0.01 | 0.00 | 78 | 1015.8 |
| 20260905113939 | 51 | 43 | 0.0 | 0.0 | 0.00 | 0.01 | 0.00 | 76 | 1015.8 |
| 20260905112946 | 51 | 43 | 0.0 | 0.0 | 0.00 | 0.01 | 0.00 | 75 | 1015.7 |
| 20260905111953 | 51 | 42 | 0.0 | 0.0 | 0.00 | 0.01 | 0.00 | 74 | 1015.6 |
| 20260905110955 | 51 | 43 | 0.0 | 0.0 | 0.00 | 0.01 | 0.00 | 73 | 1015.5 |
| 20260905105937 | 51 | 43 | 0.0 | 0.0 | 0.00 | 0.01 | 0.00 | 77 | 1015.5 |
| 20260905104940 | 51 | 43 | 0.0 | 0.0 | 0.00 | 0.01 | 0.00 | 74 | 1015.3 |
| 20260905103947 | 51 | 43 | 0.0 | 0.0 | 0.00 | 0.01 | 0.00 | 74 | 1015.4 |
| 20260905103011 | 52 | 42 | 0.0 | 0.0 | 0.00 | 0.01 | 0.00 | 73 | 1015.3 |
| 20260905101950 | 52 | 43 | 0.0 | 0.0 | 0.00 | 0.01 | 0.00 | 71 | 1015.4 |
| 20260905100935 | 53 | 43 | 0.0 | 0.0 | 0.00 | 0.01 | 0.00 | 70 | 1015.4 |
| 20260905094937 | 53 | 43 | 0.0 | 0.0 | 0.00 | 0.01 | 0.00 | 67 | 1015.4 |
| 20260905094000 | 53 | 43 | 0.0 | 7.0 | 0.00 | 0.01 | 0.00 | 68 | 1015.4 |
| 20260905092941 | 53 | 42 | 0.0 | 0.0 | 0.00 | 0.01 | 0.00 | 68 | 1015.2 |
| 20260905091945 | 53 | 43 | 0.0 | 0.0 | 0.00 | 0.01 | 0.00 | 68 | 1015.0 |
| 20260905085941 | 53 | 43 | 0.0 | 0.0 | 0.00 | 0.01 | 0.00 | 68 | 1014.8 |
| 20260905084948 | 54 | 43 | 0.0 | 0.0 | 0.00 | 0.01 | 0.00 | 67 | 1014.9 |
| 20260905083932 | 54 | 43 | 0.0 | 0.0 | 0.00 | 0.01 | 0.00 | 66 | 1014.8 |
| 20260905082935 | 54 | 43 | 0.0 | 0.0 | 0.00 | 0.01 | 0.00 | 67 | 1014.9 |
| 20260905081938 | 54 | 42 | 0.0 | 7.0 | 0.00 | 0.01 | 0.00 | 64 | 1014.9 |
| 20260905080945 | 54 | 43 | 0.0 | 0.0 | 0.00 | 0.01 | 0.00 | 64 | 1014.6 |
| 20260905075948 | 55 | 42 | 0.0 | 0.0 | 0.00 | 0.01 | 0.00 | 63 | 1014.6 |
| 20260905074931 | 55 | 42 | 0.0 | 0.0 | 0.00 | 0.01 | 0.00 | 63 | 1014.4 |
| 20260905073935 | 55 | 43 | 0.0 | 0.0 | 0.00 | 0.01 | 0.00 | 63 | 1014.1 |
| 20260905073004 | 56 | 42 | 0.0 | 0.0 | 0.00 | 0.01 | 0.00 | 62 | 1014.1 |
| 20260905071945 | 56 | 43 | 0.0 | 0.0 | 0.00 | 0.01 | 0.00 | 62 | 1013.9 |
| 20260905070946 | 56 | 43 | 0.0 | 4.0 | 0.00 | 0.01 | 0.00 | 62 | 1013.9 |
| 20260905065930 | 56 | 42 | 0.0 | 3.0 | 0.00 | 0.01 | 0.00 | 62 | 1013.8 |
| 20260905064938 | 56 | 42 | 0.0 | 1.0 | 0.00 | 0.01 | 0.00 | 62 | 1013.7 |
| 20260905063941 | 55 | 43 | 0.0 | 6.0 | 0.00 | 0.01 | 0.01 | 63 | 1013.6 |
| 20260905062944 | 55 | 43 | 0.0 | 0.0 | 0.00 | 0.01 | 0.01 | 63 | 1013.6 |
| 20260905060942 | 55 | 43 | 0.0 | 0.0 | 0.00 | 0.01 | 0.01 | 65 | 1013.5 |
| 20260905055949 | 54 | 43 | 0.0 | 0.0 | 0.00 | 0.01 | 0.01 | 67 | 1013.5 |
| 20260905054934 | 54 | 43 | 0.0 | 0.0 | 0.00 | 0.01 | 0.01 | 68 | 1013.5 |
| 20260905053958 | 53 | 43 | 0.0 | 0.0 | 0.00 | 0.01 | 0.01 | 68 | 1013.5 |
| 20260905052944 | 54 | 43 | 0.0 | 0.0 | 0.00 | 0.01 | 0.01 | 66 | 1013.5 |
| 20260905051931 | 54 | 43 | 0.0 | 0.0 | 0.00 | 0.01 | 0.01 | 65 | 1013.5 |
| 20260905050953 | 54 | 42 | 0.0 | 0.0 | 0.00 | 0.01 | 0.01 | 65 | 1013.4 |
| 20260905045933 | 54 | 42 | 0.0 | 0.0 | 0.00 | 0.01 | 0.01 | 65 | 1013.5 |
| 20260905044957 | 54 | 43 | 0.0 | 0.0 | 0.00 | 0.01 | 0.01 | 65 | 1013.6 |
| 20260905043958 | 54 | 42 | 0.0 | 0.0 | 0.00 | 0.01 | 0.01 | 64 | 1013.5 |
| 20260905042946 | 55 | 43 | 0.0 | 0.0 | 0.00 | 0.01 | 0.01 | 64 | 1013.6 |
| 20260905040942 | 56 | 42 | 0.0 | 0.0 | 0.00 | 0.01 | 0.01 | 62 | 1013.7 |
| 20260905040006 | 57 | 42 | 0.0 | 0.0 | 0.00 | 0.01 | 0.01 | 60 | 1013.5 |
| 20260905034927 | 58 | 42 | 0.0 | 0.0 | 0.00 | 0.01 | 0.01 | 60 | 1013.6 |
| 20260905033937 | 59 | 43 | 0.0 | 0.0 | 0.00 | 0.01 | 0.01 | 59 | 1013.6 |
| 20260905032943 | 60 | 43 | 0.0 | 0.0 | 0.00 | 0.01 | 0.01 | 59 | 1013.7 |
| 20260905031949 | 61 | 42 | 0.0 | 0.0 | 0.00 | 0.01 | 0.01 | 54 | 1013.6 |
| 20260905030934 | 62 | 42 | 0.0 | 0.0 | 0.00 | 0.01 | 0.01 | 54 | 1013.4 |
| 20260905025941 | 63 | 42 | 0.0 | 0.0 | 0.00 | 0.01 | 0.01 | 51 | 1013.4 |
| 20260905024944 | 65 | 42 | 0.0 | 0.0 | 0.00 | 0.01 | 0.01 | 50 | 1013.4 |
| 20260905023928 | 66 | 42 | 0.0 | 0.0 | 0.00 | 0.01 | 0.01 | 48 | 1013.4 |
| 20260905022933 | 67 | 43 | 0.0 | 1.0 | 0.00 | 0.01 | 0.01 | 47 | 1013.3 |
| 20260905021940 | 69 | 42 | 0.0 | 4.0 | 0.00 | 0.01 | 0.01 | 45 | 1013.2 |
| 20260905020942 | 71 | 43 | 0.0 | 0.0 | 0.00 | 0.01 | 0.01 | 44 | 1013.2 |
| 20260905015944 | 71 | 42 | 0.0 | 0.0 | 0.00 | 0.01 | 0.01 | 43 | 1013.1 |
| 20260905015006 | 72 | 42 | 0.0 | 0.0 | 0.00 | 0.01 | 0.01 | 45 | 1013.1 |
| 20260905013949 | 71 | 43 | 0.0 | 3.0 | 0.00 | 0.01 | 0.01 | 41 | 1013.0 |
| 20260905011950 | 72 | 43 | 0.0 | 3.0 | 0.00 | 0.01 | 0.01 | 42 | 1012.9 |
| 20260905010933 | 72 | 43 | 0.0 | 6.0 | 0.00 | 0.01 | 0.01 | 42 | 1012.8 |
| 20260905005936 | 73 | 43 | 1.0 | 4.0 | 0.00 | 0.01 | 0.01 | 38 | 1012.7 |
| 20260905004939 | 73 | 42 | 1.0 | 5.0 | 0.00 | 0.01 | 0.01 | 41 | 1012.7 |
| 20260905003000 | 72 | 42 | 0.0 | 4.0 | 0.00 | 0.01 | 0.01 | 43 | 1012.6 |
| 20260905001943 | 72 | 43 | 1.0 | 7.0 | 0.00 | 0.01 | 0.01 | 43 | 1012.6 |
| 20260905000946 | 70 | 43 | 0.0 | 4.0 | 0.00 | 0.01 | 0.01 | 44 | 1012.5 |